EW8735 Weather Reports


Display with metric or nautical units.
time (UTC)temp
F
wind
direction
speed
MPH
gust
MPH
rain 1hr
in
rain 24hr
in
rain mn
in
humidity
%
barometer
mb
20260831233027 85 12 0.0 0.0 0.00 0.00 0.00 21 1005.0
20260831231524 85 14 0.0 0.0 0.00 0.00 0.00 21 1005.3
20260831230023 85 4 0.0 0.0 0.00 0.00 0.00 21 1005.4
20260831224520 85 4 0.0 0.0 0.00 0.00 0.00 21 1005.7
20260831223017 84 12 0.0 0.0 0.00 0.00 0.00 22 1005.8
20260831221523 83 13 0.0 0.0 0.00 0.00 0.00 22 1006.1
20260831220011 83 14 0.0 0.0 0.00 0.00 0.00 23 1006.4
20260831214508 83 354 0.0 0.0 0.00 0.00 0.00 25 1006.6
20260831213010 83 354 0.0 0.0 0.00 0.00 0.00 24 1006.8
20260831211504 82 354 0.0 0.0 0.00 0.00 0.00 24 1007.1
20260831210000 81 354 0.0 0.0 0.00 0.00 0.00 25 1007.2
20260831204559 81 354 0.0 0.0 0.00 0.00 0.00 25 1007.5
20260831203104 81 343 0.0 0.0 0.00 0.00 0.00 24 1007.7
20260831201555 81 340 0.0 0.0 0.00 0.00 0.00 24 1008.0
20260831200058 80 340 0.0 0.0 0.00 0.00 0.00 27 1008.2
20260831194612 80 340 0.0 0.0 0.00 0.00 0.00 26 1008.4
20260831193053 81 321 0.0 0.0 0.00 0.00 0.00 26 1008.5
20260831191549 80 321 0.0 0.0 0.00 0.00 0.00 28 1008.9
20260831190107 79 321 0.0 0.0 0.00 0.00 0.00 26 1009.3
20260831184541 77 321 0.0 0.0 0.00 0.00 0.00 27 1009.6
20260831183036 76 314 0.0 0.0 0.00 0.00 0.00 27 1009.8
20260831181542 74 314 0.0 0.0 0.00 0.00 0.00 29 1010.0
20260831180029 74 314 0.0 0.0 0.00 0.00 0.00 30 1010.2
20260831174526 73 314 0.0 0.0 0.00 0.00 0.00 31 1010.5
20260831173023 71 314 0.0 0.0 0.00 0.00 0.00 33 1010.6
20260831171517 69 314 0.0 0.0 0.00 0.00 0.00 36 1010.8
20260831170014 67 323 0.0 0.0 0.00 0.00 0.00 38 1010.8
20260831164518 67 323 0.0 0.0 0.00 0.00 0.00 40 1010.9
20260831163011 65 328 0.0 0.0 0.00 0.00 0.00 42 1011.0
20260831161506 65 62 0.0 0.0 0.00 0.00 0.00 41 1011.2
20260831160001 63 62 0.0 0.0 0.00 0.00 0.00 43 1011.4
20260831154606 62 62 0.0 0.0 0.00 0.00 0.00 45 1011.4
20260831153108 59 280 0.0 0.0 0.00 0.00 0.00 50 1011.5
20260831151552 58 279 0.0 0.0 0.00 0.00 0.00 49 1011.6
20260831150048 57 279 0.0 0.0 0.00 0.00 0.00 53 1011.7
20260831144545 55 280 0.0 0.0 0.00 0.00 0.00 55 1011.6
20260831143044 52 279 0.0 0.0 0.00 0.00 0.00 60 1011.6
20260831141542 49 279 0.0 0.0 0.00 0.00 0.00 62 1011.3
20260831140039 49 279 0.0 0.0 0.00 0.00 0.00 63 1011.4
20260831134544 48 280 0.0 0.0 0.00 0.00 0.00 63 1011.3
20260831133037 47 280 0.0 0.0 0.00 0.00 0.00 65 1011.3
20260831131543 47 280 0.0 0.0 0.00 0.00 0.00 64 1011.2
20260831130035 47 280 0.0 0.0 0.00 0.00 0.00 63 1011.2
20260831124534 48 280 0.0 0.0 0.00 0.00 0.00 64 1011.1
20260831123032 48 281 0.0 0.0 0.00 0.00 0.00 63 1011.2
20260831121533 49 281 0.0 0.0 0.00 0.00 0.00 61 1011.3
20260831120039 48 280 0.0 0.0 0.00 0.00 0.00 62 1011.3
20260831114530 48 280 0.0 0.0 0.00 0.00 0.00 59 1011.4
20260831113029 48 280 0.0 0.0 0.00 0.00 0.00 61 1011.3
20260831111529 48 280 0.0 0.0 0.00 0.00 0.00 60 1011.3
20260831110027 48 280 0.0 0.0 0.00 0.00 0.00 61 1011.3
20260831104531 48 281 0.0 0.0 0.00 0.00 0.00 60 1011.3
20260831103024 48 280 0.0 0.0 0.00 0.00 0.00 60 1011.4
20260831101522 49 281 0.0 0.0 0.00 0.00 0.00 58 1011.5
20260831100018 50 280 0.0 0.0 0.00 0.00 0.00 61 1011.6
20260831094532 51 280 0.0 0.0 0.00 0.00 0.00 60 1011.6
20260831093022 51 280 0.0 0.0 0.00 0.00 0.00 57 1011.7
20260831091520 51 280 0.0 0.0 0.00 0.00 0.00 56 1011.9
20260831090011 51 280 0.0 0.0 0.00 0.00 0.00 58 1012.1
20260831084530 51 280 0.0 0.0 0.00 0.00 0.00 57 1012.2
20260831083009 51 281 0.0 0.0 0.00 0.00 0.00 56 1012.2
20260831081506 52 280 0.0 0.0 0.00 0.00 0.00 56 1012.2
20260831080014 52 280 0.0 0.0 0.00 0.00 0.00 56 1012.2
20260831074508 52 280 0.0 0.0 0.00 0.00 0.00 56 1012.2
20260831073002 53 280 0.0 0.0 0.00 0.00 0.00 56 1012.3
20260831071611 53 280 0.0 0.0 0.00 0.00 0.00 55 1012.4
20260831070059 53 280 0.0 0.0 0.00 0.00 0.00 55 1012.4
20260831064600 53 280 0.0 0.0 0.00 0.00 0.00 54 1012.3
20260831063110 53 280 0.0 0.0 0.00 0.00 0.00 53 1012.4
20260831061557 54 280 0.0 0.0 0.00 0.00 0.00 53 1012.4
20260831060056 54 280 0.0 0.0 0.00 0.00 0.00 53 1012.4
20260831054556 55 280 0.0 0.0 0.00 0.00 0.00 50 1012.4
20260831053101 56 280 0.0 0.0 0.00 0.00 0.00 48 1012.4
20260831051557 58 280 0.0 0.0 0.00 0.00 0.00 48 1012.5
20260831050055 59 280 0.0 0.0 0.00 0.00 0.00 45 1012.4
20260831044555 59 280 0.0 0.0 0.00 0.00 0.00 46 1012.4
20260831043054 59 280 0.0 0.0 0.00 0.00 0.00 46 1012.6
20260831041554 59 280 0.0 0.0 0.00 0.00 0.00 45 1012.6
20260831040053 59 280 0.0 0.0 0.00 0.00 0.00 44 1012.6
20260831034602 60 280 0.0 0.0 0.00 0.00 0.00 44 1012.5
20260831033059 61 281 0.0 0.0 0.00 0.00 0.00 42 1012.5
20260831031552 63 280 0.0 0.0 0.00 0.00 0.00 39 1012.3
20260831030054 65 280 0.0 0.0 0.00 0.00 0.00 37 1012.3
20260831024558 69 280 0.0 0.0 0.00 0.00 0.00 36 1012.1
20260831023051 71 280 0.0 0.0 0.00 0.00 0.00 34 1012.1
20260831021551 73 281 0.0 0.0 0.00 0.00 0.00 33 1012.0
20260831020050 74 288 0.0 0.0 0.00 0.00 0.00 31 1012.0
20260831014550 75 289 0.0 0.0 0.00 0.00 0.00 31 1012.0
20260831013049 77 289 0.0 0.0 0.00 0.00 0.00 28 1012.0
20260831011555 77 289 0.0 0.0 0.00 0.00 0.00 29 1012.0
20260831010056 77 287 0.0 0.0 0.00 0.00 0.00 28 1012.0
20260831004547 77 285 0.0 0.0 0.00 0.00 0.00 29 1012.1
20260831003049 78 278 0.0 0.0 0.00 0.00 0.00 28 1012.1
20260831001544 78 278 0.0 0.0 0.00 0.00 0.00 29 1012.1
20260831000044 77 278 0.0 0.0 0.00 0.00 0.00 30 1012.3
20260830234544 77 278 0.0 0.0 0.00 0.00 0.00 29 1012.4